DAL755 SEQM-SEGU

Flight info

Callsign DAL755
Flight time 0h 35m
Altitude 24000
Route TEMOX3B TEMOX
Aircraft A320/M-SDE3FGHIRWY/LB1

Departure

Time 2026-05-07 20:28
Airport Mariscal Sucre International Airport (SEQM)

Arrival

Time 2026-05-07 21:03
Airport José Joaquín de Olmedo International Airport (SEGU)
Time Latitude Longitude Altitude Speed Heading
2026-05-07 20:01 -0.12431 -78.35930 7836 ft 0 kts 267°
2026-05-07 20:16 -0.12429 -78.35907 7842 ft 4 kts 263°
2026-05-07 20:16 -0.12425 -78.35880 7833 ft 4 kts 255°
2026-05-07 20:17 -0.12416 -78.35855 7842 ft 4 kts 234°
2026-05-07 20:17 -0.12399 -78.35842 7836 ft 2 kts 178°
2026-05-07 20:17 -0.12393 -78.35842 7839 ft 0 kts 176°
2026-05-07 20:20 -0.12394 -78.35842 7842 ft 1 kts 176°
2026-05-07 20:20 -0.12438 -78.35839 7842 ft 11 kts 176°
2026-05-07 20:20 -0.12530 -78.35834 7839 ft 13 kts 177°
2026-05-07 20:20 -0.12618 -78.35830 7839 ft 12 kts 177°
2026-05-07 20:21 -0.12689 -78.35807 7842 ft 9 kts 120°
2026-05-07 20:21 -0.12694 -78.35732 7846 ft 12 kts 88°
2026-05-07 20:21 -0.12722 -78.35687 7855 ft 6 kts 155°
2026-05-07 20:21 -0.12777 -78.35679 7860 ft 11 kts 176°
2026-05-07 20:22 -0.12864 -78.35676 7866 ft 13 kts 177°
2026-05-07 20:22 -0.12936 -78.35672 7869 ft 8 kts 177°
2026-05-07 20:22 -0.12991 -78.35670 7872 ft 11 kts 178°
2026-05-07 20:22 -0.13090 -78.35667 7875 ft 17 kts 178°
2026-05-07 20:23 -0.13215 -78.35662 7879 ft 17 kts 177°
2026-05-07 20:23 -0.13334 -78.35657 7883 ft 16 kts 177°
2026-05-07 20:23 -0.13440 -78.35653 7886 ft 14 kts 177°
2026-05-07 20:23 -0.13526 -78.35644 7889 ft 10 kts 162°
2026-05-07 20:24 -0.13571 -78.35603 7890 ft 9 kts 123°
2026-05-07 20:24 -0.13633 -78.35562 7893 ft 11 kts 169°
2026-05-07 20:24 -0.13735 -78.35558 7896 ft 17 kts 179°
2026-05-07 20:24 -0.13850 -78.35554 7898 ft 16 kts 177°
2026-05-07 20:25 -0.13960 -78.35549 7900 ft 16 kts 177°
2026-05-07 20:25 -0.14087 -78.35543 7907 ft 18 kts 176°
2026-05-07 20:25 -0.14198 -78.35536 7913 ft 14 kts 169°
2026-05-07 20:25 -0.14244 -78.35506 7915 ft 0 kts 126°
2026-05-07 20:26 -0.14247 -78.35500 7915 ft 4 kts 122°
2026-05-07 20:26 -0.14256 -78.35449 7915 ft 10 kts 89°
2026-05-07 20:26 -0.14231 -78.35378 7920 ft 13 kts 40°
2026-05-07 20:27 -0.14127 -78.35372 7915 ft 20 kts 358°
2026-05-07 20:27 -0.13812 -78.35386 7897 ft 86 kts 358°
2026-05-07 20:27 -0.12935 -78.35423 7874 ft 163 kts 358°
2026-05-07 20:27 -0.11645 -78.35477 8285 ft 192 kts 357°
2026-05-07 20:28 -0.10311 -78.35546 9382 ft 192 kts 356°
2026-05-07 20:28 -0.08980 -78.35625 10228 ft 195 kts 356°
2026-05-07 20:28 -0.07555 -78.35709 10409 ft 215 kts 357°
2026-05-07 20:28 -0.05997 -78.35874 10610 ft 237 kts 345°
2026-05-07 20:29 -0.04577 -78.36829 10823 ft 262 kts 307°
2026-05-07 20:29 -0.03900 -78.38562 11216 ft 280 kts 278°
2026-05-07 20:29 -0.03836 -78.40557 11668 ft 296 kts 266°
2026-05-07 20:29 -0.04013 -78.42662 12139 ft 313 kts 265°
2026-05-07 20:30 -0.04142 -78.44894 12540 ft 331 kts 267°
2026-05-07 20:30 -0.04199 -78.47248 12917 ft 348 kts 269°
2026-05-07 20:30 -0.04215 -78.49705 13498 ft 357 kts 269°
2026-05-07 20:30 -0.04226 -78.52198 14220 ft 360 kts 269°
2026-05-07 20:31 -0.04250 -78.54727 14768 ft 368 kts 269°
2026-05-07 20:31 -0.04290 -78.57299 15400 ft 372 kts 269°
2026-05-07 20:31 -0.04449 -78.59885 16037 ft 376 kts 258°
2026-05-07 20:31 -0.05437 -78.62296 16621 ft 378 kts 233°
2026-05-07 20:32 -0.07229 -78.64222 17242 ft 380 kts 219°
2026-05-07 20:32 -0.09330 -78.65839 17895 ft 382 kts 214°
2026-05-07 20:32 -0.11507 -78.67374 18552 ft 384 kts 214°
2026-05-07 20:32 -0.13672 -78.68979 19081 ft 391 kts 217°
2026-05-07 20:33 -0.15772 -78.70738 19587 ft 397 kts 220°
2026-05-07 20:33 -0.17798 -78.72629 20152 ft 401 kts 223°
2026-05-07 20:33 -0.19784 -78.74605 20678 ft 406 kts 224°
2026-05-07 20:33 -0.21772 -78.76630 21208 ft 409 kts 224°
2026-05-07 20:34 -0.23746 -78.78639 21714 ft 412 kts 224°
2026-05-07 20:34 -0.25806 -78.80707 22221 ft 416 kts 223°
2026-05-07 20:34 -0.27869 -78.82748 22730 ft 419 kts 223°
2026-05-07 20:34 -0.29937 -78.84771 23203 ft 422 kts 223°
2026-05-07 20:35 -0.32049 -78.86827 23657 ft 426 kts 223°
2026-05-07 20:35 -0.34183 -78.88904 24099 ft 430 kts 223°
2026-05-07 20:35 -0.36330 -78.90999 24320 ft 432 kts 223°
2026-05-07 20:35 -0.38473 -78.93094 24369 ft 429 kts 223°
2026-05-07 20:36 -0.40601 -78.95178 24367 ft 428 kts 223°
2026-05-07 20:36 -0.42728 -78.97264 24367 ft 427 kts 223°
2026-05-07 20:36 -0.44852 -78.99343 24372 ft 427 kts 223°
2026-05-07 20:36 -0.46972 -79.01418 24355 ft 427 kts 223°
2026-05-07 20:37 -0.49089 -79.03494 24357 ft 427 kts 223°
2026-05-07 20:37 -0.51206 -79.05573 24358 ft 427 kts 223°
2026-05-07 20:37 -0.53328 -79.07656 24360 ft 427 kts 223°
2026-05-07 20:37 -0.55446 -79.09734 24381 ft 427 kts 223°
2026-05-07 20:38 -0.57590 -79.11800 24375 ft 427 kts 220°
2026-05-07 20:38 -0.59970 -79.13564 24365 ft 425 kts 210°
2026-05-07 20:38 -0.62535 -79.15031 24361 ft 425 kts 207°
2026-05-07 20:38 -0.65111 -79.16485 24356 ft 425 kts 208°
2026-05-07 20:39 -0.67650 -79.17921 24350 ft 425 kts 208°
2026-05-07 20:39 -0.70216 -79.19375 24309 ft 423 kts 208°
2026-05-07 20:39 -0.72761 -79.20822 24056 ft 417 kts 208°
2026-05-07 20:39 -0.75272 -79.22251 23801 ft 413 kts 208°
2026-05-07 20:40 -0.77764 -79.23667 23556 ft 411 kts 208°
2026-05-07 20:40 -0.80249 -79.25079 23305 ft 410 kts 208°
2026-05-07 20:40 -0.82723 -79.26483 23057 ft 408 kts 208°
2026-05-07 20:40 -0.85187 -79.27881 22804 ft 406 kts 208°
2026-05-07 20:41 -0.87637 -79.29269 22555 ft 404 kts 207°
2026-05-07 20:41 -0.90075 -79.30647 22305 ft 402 kts 207°
2026-05-07 20:41 -0.92509 -79.32024 22056 ft 401 kts 207°
2026-05-07 20:41 -0.94926 -79.33394 21805 ft 398 kts 207°
2026-05-07 20:42 -0.97323 -79.34754 21555 ft 396 kts 208°
2026-05-07 20:42 -0.99720 -79.36116 21309 ft 396 kts 208°
2026-05-07 20:42 -1.02116 -79.37480 21046 ft 394 kts 208°
2026-05-07 20:42 -1.04493 -79.38831 20813 ft 391 kts 207°
2026-05-07 20:43 -1.06866 -79.40176 20576 ft 391 kts 207°
2026-05-07 20:43 -1.09227 -79.41516 20315 ft 390 kts 207°
2026-05-07 20:43 -1.11573 -79.42846 20061 ft 386 kts 207°
2026-05-07 20:43 -1.13911 -79.44170 19811 ft 385 kts 207°
2026-05-07 20:44 -1.16205 -79.45468 19568 ft 384 kts 207°
2026-05-07 20:44 -1.18562 -79.46803 19322 ft 384 kts 207°
2026-05-07 20:44 -1.20844 -79.48097 19060 ft 381 kts 207°
2026-05-07 20:44 -1.23148 -79.49406 18829 ft 380 kts 207°
2026-05-07 20:45 -1.25439 -79.50709 18576 ft 378 kts 207°
2026-05-07 20:45 -1.27717 -79.52006 18322 ft 376 kts 207°
2026-05-07 20:45 -1.29988 -79.53296 18074 ft 374 kts 207°
2026-05-07 20:45 -1.32246 -79.54580 17823 ft 373 kts 207°
2026-05-07 20:46 -1.34494 -79.55858 17574 ft 371 kts 207°
2026-05-07 20:46 -1.36736 -79.57130 17325 ft 370 kts 207°
2026-05-07 20:46 -1.38972 -79.58399 17073 ft 369 kts 207°
2026-05-07 20:46 -1.41201 -79.59661 16822 ft 367 kts 208°
2026-05-07 20:47 -1.43422 -79.60922 16572 ft 366 kts 208°
2026-05-07 20:47 -1.45628 -79.62172 16327 ft 364 kts 208°
2026-05-07 20:47 -1.47830 -79.63417 16073 ft 362 kts 207°
2026-05-07 20:47 -1.50018 -79.64656 15903 ft 359 kts 207°
2026-05-07 20:48 -1.52213 -79.65878 15728 ft 361 kts 207°
2026-05-07 20:48 -1.54422 -79.67080 15478 ft 360 kts 207°
2026-05-07 20:48 -1.56593 -79.68249 15233 ft 360 kts 207°
2026-05-07 20:48 -1.58787 -79.69431 14984 ft 358 kts 207°
2026-05-07 20:49 -1.60980 -79.70610 14733 ft 358 kts 207°
2026-05-07 20:49 -1.63164 -79.71786 14479 ft 355 kts 207°
2026-05-07 20:49 -1.65324 -79.72960 14217 ft 354 kts 207°
2026-05-07 20:49 -1.67482 -79.74143 13964 ft 351 kts 207°
2026-05-07 20:50 -1.69635 -79.75306 13737 ft 352 kts 207°
2026-05-07 20:50 -1.71789 -79.76466 13505 ft 351 kts 207°
2026-05-07 20:50 -1.73932 -79.77620 13266 ft 350 kts 207°
2026-05-07 20:50 -1.76071 -79.78773 13020 ft 349 kts 207°
2026-05-07 20:51 -1.78202 -79.79923 12771 ft 347 kts 207°
2026-05-07 20:51 -1.80320 -79.81072 12528 ft 346 kts 207°
2026-05-07 20:51 -1.82430 -79.82224 12271 ft 344 kts 207°
2026-05-07 20:51 -1.84537 -79.83376 12008 ft 346 kts 208°
2026-05-07 20:52 -1.86641 -79.84517 11765 ft 342 kts 208°
2026-05-07 20:52 -1.88742 -79.85648 11496 ft 343 kts 208°
2026-05-07 20:52 -1.90838 -79.86773 11254 ft 343 kts 208°
2026-05-07 20:52 -1.92891 -79.87886 11003 ft 337 kts 208°
2026-05-07 20:53 -1.94946 -79.89005 10751 ft 335 kts 208°
2026-05-07 20:53 -1.96993 -79.90120 10514 ft 335 kts 209°
2026-05-07 20:53 -1.99037 -79.91234 10242 ft 331 kts 208°
2026-05-07 20:53 -2.01028 -79.92309 10092 ft 318 kts 208°
2026-05-07 20:54 -2.02936 -79.93337 9942 ft 306 kts 208°
2026-05-07 20:54 -2.04790 -79.94337 9691 ft 300 kts 208°
2026-05-07 20:54 -2.06616 -79.95321 9515 ft 298 kts 208°
2026-05-07 20:54 -2.08432 -79.96306 9135 ft 295 kts 208°
2026-05-07 20:55 -2.10233 -79.97285 8678 ft 295 kts 208°
2026-05-07 20:55 -2.12041 -79.98267 8010 ft 293 kts 208°
2026-05-07 20:55 -2.13821 -79.99231 7307 ft 289 kts 208°
2026-05-07 20:55 -2.15575 -80.00178 6674 ft 284 kts 208°
2026-05-07 20:56 -2.17307 -80.01114 6271 ft 281 kts 208°
2026-05-07 20:56 -2.19014 -80.02042 5881 ft 278 kts 209°
2026-05-07 20:56 -2.20659 -80.02934 5512 ft 266 kts 208°
2026-05-07 20:56 -2.22249 -80.03799 5144 ft 254 kts 209°
2026-05-07 20:57 -2.23760 -80.04617 4785 ft 240 kts 207°
2026-05-07 20:57 -2.25352 -80.05024 4440 ft 238 kts 175°
2026-05-07 20:57 -2.26863 -80.04441 4230 ft 233 kts 141°
2026-05-07 20:57 -2.27778 -80.03113 3909 ft 230 kts 112°
2026-05-07 20:58 -2.28436 -80.01661 3552 ft 233 kts 120°
2026-05-07 20:58 -2.29249 -80.00282 3211 ft 225 kts 123°
2026-05-07 20:58 -2.30067 -79.98980 2871 ft 215 kts 122°
2026-05-07 20:58 -2.30453 -79.97600 2549 ft 206 kts 82°
2026-05-07 20:59 -2.29786 -79.96417 2385 ft 194 kts 37°
2026-05-07 20:59 -2.28709 -79.95725 2260 ft 175 kts 30°
2026-05-07 20:59 -2.27713 -79.95163 2134 ft 156 kts 28°
2026-05-07 20:59 -2.27095 -79.94821 2058 ft 151 kts 28°
2026-05-07 21:00 -2.25905 -79.94157 1920 ft 145 kts 30°
2026-05-07 21:00 -2.25324 -79.93832 1858 ft 144 kts 30°
2026-05-07 21:00 -2.24450 -79.93340 1753 ft 144 kts 31°
2026-05-07 21:00 -2.23579 -79.92846 1625 ft 144 kts 31°
2026-05-07 21:01 -2.22708 -79.92352 1410 ft 143 kts 31°
2026-05-07 21:01 -2.21861 -79.91872 1220 ft 136 kts 29°
2026-05-07 21:01 -2.21047 -79.91408 1032 ft 134 kts 30°
2026-05-07 21:01 -2.20245 -79.90949 845 ft 132 kts 30°
2026-05-07 21:02 -2.19445 -79.90493 666 ft 132 kts 29°
2026-05-07 21:02 -2.18646 -79.90037 483 ft 132 kts 30°
2026-05-07 21:02 -2.17846 -79.89576 301 ft 133 kts 28°
2026-05-07 21:02 -2.17044 -79.89115 122 ft 133 kts 29°
2026-05-07 21:03 -2.16260 -79.88661 28 ft 120 kts 29°
2026-05-07 21:03 -2.15669 -79.88323 20 ft 73 kts 30°
2026-05-07 21:03 -2.15374 -79.88155 21 ft 17 kts 30°
2026-05-07 21:03 -2.15295 -79.88168 21 ft 0 kts 307°
2026-05-07 21:05 -2.15284 -79.88187 22 ft 9 kts 301°
2026-05-07 21:06 -2.15246 -79.88255 23 ft 11 kts 300°
2026-05-07 21:06 -2.15208 -79.88321 22 ft 12 kts 300°
2026-05-07 21:06 -2.15163 -79.88389 22 ft 11 kts 322°
2026-05-07 21:06 -2.15094 -79.88374 23 ft 11 kts 27°
2026-05-07 21:07 -2.15025 -79.88336 23 ft 14 kts 30°
2026-05-07 21:07 -2.14944 -79.88290 24 ft 5 kts 29°
2026-05-07 21:07 -2.14925 -79.88287 22 ft 3 kts 352°
2026-05-07 21:07 -2.14912 -79.88298 22 ft 3 kts 311°
2026-05-07 21:08 -2.14901 -79.88314 22 ft 3 kts 303°
2026-05-07 21:08 -2.14892 -79.88329 22 ft 2 kts 299°
2026-05-07 21:08 -2.14886 -79.88341 22 ft 0 kts 297°